| time (UTC) | temp C | wind direction | speed KPH | gust KPH | rain 1hr cm | rain 24hr cm | rain mn cm | humidity % | barometer mb |
| 20260507181724 | 13 | 9 | 0.0 | 0.0 | 0.00 | 0.18 | 0.18 | 68 | 1014.4 |
| 20260507181222 | 13 | 9 | 0.0 | 0.0 | 0.00 | 0.18 | 0.18 | 67 | 1014.4 |
| 20260507180723 | 14 | 9 | 0.0 | 0.0 | 0.00 | 0.18 | 0.18 | 68 | 1014.3 |
| 20260507180229 | 14 | 9 | 0.0 | 0.0 | 0.00 | 0.18 | 0.18 | 68 | 1014.3 |
| 20260507175723 | 14 | 9 | 0.0 | 0.0 | 0.00 | 0.18 | 0.18 | 68 | 1014.3 |
| 20260507175226 | 14 | 9 | 0.0 | 0.0 | 0.00 | 0.18 | 0.18 | 66 | 1014.3 |
| 20260507174724 | 15 | 9 | 0.0 | 0.0 | 0.00 | 0.18 | 0.18 | 64 | 1014.2 |
| 20260507174227 | 15 | 9 | 0.0 | 0.0 | 0.00 | 0.18 | 0.18 | 62 | 1014.2 |
| 20260507173725 | 15 | 9 | 0.0 | 0.0 | 0.00 | 0.18 | 0.18 | 61 | 1014.2 |
| 20260507173228 | 16 | 9 | 0.0 | 0.0 | 0.00 | 0.18 | 0.18 | 60 | 1014.1 |
| 20260507172726 | 16 | 9 | 0.0 | 0.0 | 0.00 | 0.18 | 0.18 | 60 | 1014.1 |
| 20260507172227 | 15 | 9 | 0.0 | 0.0 | 0.00 | 0.18 | 0.18 | 60 | 1014.1 |
| 20260507171712 | 15 | 9 | 0.0 | 9.7 | 0.00 | 0.18 | 0.18 | 59 | 1014.1 |
| 20260507171215 | 16 | 9 | 4.8 | 9.7 | 0.00 | 0.18 | 0.18 | 59 | 1014.0 |
| 20260507170717 | 16 | 11 | 0.0 | 0.0 | 0.00 | 0.18 | 0.18 | 58 | 1013.9 |
| 20260507170221 | 16 | 11 | 0.0 | 0.0 | 0.00 | 0.18 | 0.18 | 59 | 1013.9 |
| 20260507165721 | 16 | 11 | 0.0 | 0.0 | 0.00 | 0.18 | 0.18 | 59 | 1014.0 |
| 20260507165216 | 16 | 11 | 0.0 | 0.0 | 0.00 | 0.18 | 0.18 | 57 | 1014.0 |
| 20260507164733 | 16 | 11 | 0.0 | 0.0 | 0.00 | 0.18 | 0.18 | 56 | 1014.0 |
| 20260507164233 | 16 | 11 | 0.0 | 9.7 | 0.00 | 0.18 | 0.18 | 56 | 1014.0 |
| 20260507163731 | 17 | 9 | 4.8 | 9.7 | 0.00 | 0.18 | 0.18 | 55 | 1014.0 |
| 20260507163229 | 16 | 9 | 0.0 | 8.0 | 0.00 | 0.18 | 0.18 | 57 | 1014.0 |
| 20260507162733 | 16 | 9 | 4.8 | 8.0 | 0.00 | 0.18 | 0.18 | 56 | 1013.9 |
| 20260507162228 | 16 | 360 | 0.0 | 0.0 | 0.00 | 0.18 | 0.18 | 58 | 1013.8 |
| 20260507161724 | 16 | 360 | 0.0 | 4.8 | 0.00 | 0.18 | 0.18 | 57 | 1013.9 |
| 20260507161227 | 16 | 17 | 3.2 | 4.8 | 0.00 | 0.18 | 0.18 | 55 | 1013.9 |
| 20260507160728 | 17 | 19 | 0.0 | 0.0 | 0.00 | 0.18 | 0.18 | 56 | 1013.9 |
| 20260507160233 | 17 | 20 | 0.0 | 0.0 | 0.00 | 0.18 | 0.18 | 56 | 1013.9 |
| 20260507155727 | 16 | 19 | 0.0 | 0.0 | 0.00 | 0.18 | 0.18 | 59 | 1013.9 |
| 20260507155216 | 16 | 19 | 0.0 | 0.0 | 0.00 | 0.18 | 0.18 | 58 | 1014.0 |
| 20260507154716 | 16 | 19 | 0.0 | 0.0 | 0.00 | 0.18 | 0.18 | 57 | 1014.0 |
| 20260507154219 | 16 | 24 | 0.0 | 6.4 | 0.00 | 0.18 | 0.18 | 59 | 1014.0 |
| 20260507153723 | 16 | 24 | 3.2 | 6.4 | 0.00 | 0.18 | 0.18 | 57 | 1013.9 |
| 20260507153217 | 16 | 24 | 0.0 | 8.0 | 0.00 | 0.18 | 0.18 | 59 | 1013.9 |
| 20260507152720 | 16 | 29 | 4.8 | 8.0 | 0.00 | 0.18 | 0.18 | 58 | 1013.9 |
| 20260507152217 | 16 | 29 | 0.0 | 0.0 | 0.00 | 0.18 | 0.18 | 58 | 1013.9 |
| 20260507151716 | 16 | 29 | 0.0 | 0.0 | 0.00 | 0.18 | 0.18 | 59 | 1013.9 |
| 20260507151217 | 16 | 29 | 0.0 | 0.0 | 0.00 | 0.18 | 0.18 | 57 | 1014.0 |
| 20260507150714 | 16 | 28 | 0.0 | 0.0 | 0.00 | 0.18 | 0.18 | 56 | 1014.0 |
| 20260507150218 | 16 | 28 | 0.0 | 0.0 | 0.00 | 0.18 | 0.18 | 56 | 1014.1 |
| 20260507145719 | 16 | 28 | 0.0 | 0.0 | 0.00 | 0.18 | 0.18 | 57 | 1014.1 |
| 20260507145223 | 17 | 28 | 0.0 | 0.0 | 0.00 | 0.18 | 0.18 | 58 | 1014.1 |
| 20260507144726 | 16 | 23 | 0.0 | 0.0 | 0.00 | 0.18 | 0.18 | 58 | 1014.0 |
| 20260507144226 | 16 | 24 | 0.0 | 3.2 | 0.00 | 0.18 | 0.18 | 60 | 1014.0 |
| 20260507143723 | 16 | 24 | 1.6 | 3.2 | 0.00 | 0.18 | 0.18 | 60 | 1014.0 |
| 20260507143222 | 17 | 19 | 0.0 | 0.0 | 0.00 | 0.18 | 0.18 | 57 | 1014.0 |
| 20260507142721 | 17 | 19 | 0.0 | 0.0 | 0.00 | 0.18 | 0.18 | 59 | 1014.0 |
| 20260507142235 | 16 | 360 | 0.0 | 0.0 | 0.00 | 0.18 | 0.18 | 58 | 1014.0 |
| 20260507141729 | 16 | 360 | 0.0 | 0.0 | 0.00 | 0.18 | 0.18 | 58 | 1014.0 |
| 20260507141213 | 16 | 28 | 0.0 | 6.4 | 0.00 | 0.18 | 0.18 | 59 | 1014.0 |
| 20260507140716 | 16 | 28 | 3.2 | 6.4 | 0.00 | 0.18 | 0.18 | 61 | 1014.1 |
| 20260507140227 | 16 | 24 | 0.0 | 8.0 | 0.00 | 0.18 | 0.18 | 60 | 1014.1 |
| 20260507135716 | 16 | 38 | 4.8 | 8.0 | 0.00 | 0.18 | 0.18 | 63 | 1014.1 |
| 20260507135231 | 16 | 32 | 0.0 | 3.2 | 0.00 | 0.18 | 0.18 | 63 | 1014.2 |
| 20260507134728 | 16 | 33 | 1.6 | 3.2 | 0.00 | 0.18 | 0.18 | 62 | 1014.3 |
| 20260507134227 | 16 | 33 | 0.0 | 0.0 | 0.00 | 0.18 | 0.18 | 64 | 1014.3 |
| 20260507133731 | 15 | 33 | 0.0 | 0.0 | 0.00 | 0.18 | 0.18 | 65 | 1014.3 |
| 20260507133214 | 15 | 53 | 0.0 | 0.0 | 0.00 | 0.18 | 0.18 | 65 | 1014.4 |
| 20260507132719 | 16 | 27 | 0.0 | 0.0 | 0.00 | 0.18 | 0.18 | 67 | 1014.4 |
| 20260507132223 | 14 | 27 | 0.0 | 0.0 | 0.00 | 0.18 | 0.18 | 68 | 1014.5 |
| 20260507131720 | 14 | 26 | 0.0 | 0.0 | 0.00 | 0.18 | 0.18 | 74 | 1014.5 |
| 20260507131217 | 14 | 360 | 0.0 | 0.0 | 0.00 | 0.18 | 0.18 | 80 | 1014.6 |
| 20260507130717 | 13 | 360 | 0.0 | 0.0 | 0.00 | 0.28 | 0.18 | 79 | 1014.8 |
| 20260507130216 | 13 | 360 | 0.0 | 0.0 | 0.00 | 0.28 | 0.18 | 74 | 1014.6 |
| 20260507125716 | 13 | 360 | 0.0 | 9.7 | 0.00 | 0.28 | 0.18 | 72 | 1014.7 |
| 20260507125213 | 14 | 27 | 4.8 | 9.7 | 0.00 | 0.28 | 0.18 | 68 | 1014.6 |
| 20260507124716 | 15 | 31 | 1.6 | 3.2 | 0.00 | 0.28 | 0.18 | 66 | 1014.5 |
| 20260507124216 | 15 | 31 | 0.0 | 0.0 | 0.00 | 0.28 | 0.18 | 65 | 1014.6 |
| 20260507123735 | 16 | 33 | 0.0 | 3.2 | 0.00 | 0.28 | 0.18 | 65 | 1014.6 |
| 20260507123227 | 16 | 35 | 1.6 | 3.2 | 0.00 | 0.28 | 0.18 | 63 | 1014.6 |
| 20260507122725 | 15 | 38 | 0.0 | 0.0 | 0.00 | 0.28 | 0.18 | 70 | 1014.6 |
| 20260507122223 | 14 | 38 | 0.0 | 0.0 | 0.00 | 0.28 | 0.18 | 71 | 1014.6 |
| 20260507121721 | 14 | 39 | 0.0 | 16.1 | 0.00 | 0.28 | 0.18 | 70 | 1014.5 |
| 20260507121221 | 15 | 46 | 9.7 | 16.1 | 0.00 | 0.28 | 0.18 | 67 | 1014.5 |
| 20260507120714 | 16 | 74 | 0.0 | 0.0 | 0.00 | 0.38 | 0.18 | 70 | 1014.6 |
| 20260507120221 | 15 | 74 | 0.0 | 0.0 | 0.00 | 0.38 | 0.18 | 70 | 1014.6 |
| 20260507115734 | 15 | 72 | 0.0 | 0.0 | 0.00 | 0.38 | 0.18 | 71 | 1014.6 |
| 20260507115231 | 14 | 50 | 0.0 | 0.0 | 0.00 | 0.38 | 0.18 | 73 | 1014.6 |
| 20260507114725 | 13 | 49 | 0.0 | 0.0 | 0.00 | 0.38 | 0.18 | 72 | 1014.6 |
| 20260507114222 | 14 | 50 | 0.0 | 0.0 | 0.00 | 0.38 | 0.18 | 73 | 1014.7 |
| 20260507113722 | 13 | 41 | 0.0 | 0.0 | 0.00 | 0.38 | 0.18 | 76 | 1014.7 |
| 20260507113216 | 13 | 40 | 0.0 | 0.0 | 0.00 | 0.38 | 0.18 | 73 | 1014.7 |
| 20260507112730 | 13 | 38 | 0.0 | 9.7 | 0.00 | 0.38 | 0.18 | 73 | 1014.8 |
| 20260507112227 | 13 | 37 | 6.4 | 9.7 | 0.00 | 0.38 | 0.18 | 74 | 1014.8 |
| 20260507111728 | 14 | 55 | 1.6 | 1.6 | 0.00 | 0.38 | 0.18 | 73 | 1014.7 |
| 20260507111226 | 13 | 40 | 0.0 | 4.8 | 0.00 | 0.38 | 0.18 | 74 | 1014.7 |
| 20260507110721 | 13 | 46 | 3.2 | 11.3 | 0.00 | 0.38 | 0.18 | 71 | 1014.7 |
| 20260507110216 | 15 | 30 | 6.4 | 11.3 | 0.00 | 0.38 | 0.18 | 68 | 1014.7 |
| 20260507105730 | 15 | 59 | 0.0 | 0.0 | 0.00 | 0.38 | 0.18 | 67 | 1014.6 |
| 20260507105224 | 15 | 59 | 0.0 | 0.0 | 0.00 | 0.38 | 0.18 | 64 | 1014.7 |
| 20260507104724 | 15 | 69 | 0.0 | 0.0 | 0.00 | 0.38 | 0.18 | 65 | 1014.7 |
| 20260507104217 | 15 | 69 | 0.0 | 0.0 | 0.00 | 0.38 | 0.18 | 70 | 1014.8 |
| 20260507103734 | 15 | 69 | 0.0 | 0.0 | 0.00 | 0.38 | 0.18 | 70 | 1014.8 |
| 20260507103229 | 15 | 69 | 0.0 | 0.0 | 0.00 | 0.38 | 0.18 | 74 | 1014.8 |
| 20260507102727 | 14 | 69 | 0.0 | 0.0 | 0.00 | 0.38 | 0.18 | 73 | 1014.9 |
| 20260507102224 | 13 | 69 | 0.0 | 0.0 | 0.00 | 0.38 | 0.18 | 73 | 1014.9 |
| 20260507101726 | 13 | 69 | 0.0 | 0.0 | 0.00 | 0.38 | 0.18 | 74 | 1015.0 |
| 20260507101222 | 13 | 68 | 0.0 | 0.0 | 0.00 | 0.38 | 0.18 | 71 | 1014.9 |
| 20260507100733 | 13 | 68 | 0.0 | 0.0 | 0.00 | 0.43 | 0.18 | 74 | 1015.0 |
| 20260507100216 | 13 | 68 | 0.0 | 0.0 | 0.00 | 0.43 | 0.18 | 76 | 1015.0 |
| 20260507095732 | 13 | 68 | 0.0 | 0.0 | 0.00 | 0.43 | 0.18 | 74 | 1015.0 |
| 20260507095226 | 14 | 170 | 0.0 | 0.0 | 0.00 | 0.43 | 0.18 | 74 | 1015.0 |
| 20260507094727 | 13 | 170 | 0.0 | 0.0 | 0.00 | 0.43 | 0.18 | 79 | 1015.1 |
| 20260507094227 | 13 | 170 | 0.0 | 0.0 | 0.00 | 0.43 | 0.18 | 79 | 1015.1 |
| 20260507093721 | 13 | 170 | 0.0 | 0.0 | 0.00 | 0.43 | 0.18 | 79 | 1015.1 |
| 20260507093216 | 12 | 170 | 0.0 | 0.0 | 0.00 | 0.43 | 0.18 | 79 | 1015.2 |
| 20260507092714 | 12 | 170 | 0.0 | 0.0 | 0.00 | 0.43 | 0.18 | 80 | 1015.2 |
| 20260507092217 | 12 | 170 | 0.0 | 0.0 | 0.00 | 0.43 | 0.18 | 82 | 1015.1 |
| 20260507091721 | 12 | 170 | 0.0 | 0.0 | 0.00 | 0.43 | 0.18 | 84 | 1015.1 |
| 20260507091223 | 11 | 170 | 0.0 | 0.0 | 0.00 | 0.43 | 0.18 | 85 | 1015.1 |
| 20260507090721 | 11 | 170 | 0.0 | 0.0 | 0.00 | 0.43 | 0.18 | 85 | 1015.1 |
| 20260507090216 | 11 | 170 | 0.0 | 0.0 | 0.00 | 0.43 | 0.18 | 85 | 1015.1 |
| 20260507085729 | 11 | 170 | 0.0 | 0.0 | 0.00 | 0.43 | 0.18 | 85 | 1015.2 |
| 20260507085225 | 11 | 171 | 0.0 | 0.0 | 0.00 | 0.43 | 0.18 | 87 | 1015.1 |
| 20260507084717 | 11 | 171 | 0.0 | 0.0 | 0.00 | 0.43 | 0.18 | 87 | 1015.1 |
| 20260507084234 | 10 | 171 | 0.0 | 0.0 | 0.00 | 0.43 | 0.18 | 88 | 1015.0 |
| 20260507083728 | 10 | 171 | 0.0 | 0.0 | 0.00 | 0.43 | 0.18 | 88 | 1015.1 |
| 20260507083230 | 10 | 172 | 0.0 | 0.0 | 0.00 | 0.43 | 0.18 | 88 | 1015.0 |
| 20260507082728 | 10 | 171 | 0.0 | 0.0 | 0.00 | 0.43 | 0.18 | 88 | 1015.0 |
| 20260507082221 | 10 | 172 | 0.0 | 0.0 | 0.00 | 0.43 | 0.18 | 88 | 1015.0 |
| 20260507081721 | 10 | 171 | 0.0 | 0.0 | 0.00 | 0.43 | 0.18 | 87 | 1015.1 |
| 20260507081234 | 10 | 171 | 0.0 | 0.0 | 0.00 | 0.43 | 0.18 | 87 | 1015.1 |
| 20260507080728 | 10 | 171 | 0.0 | 0.0 | 0.00 | 0.43 | 0.18 | 87 | 1015.1 |
| 20260507080236 | 10 | 172 | 0.0 | 0.0 | 0.00 | 0.43 | 0.18 | 87 | 1015.1 |
| 20260507075731 | 10 | 171 | 0.0 | 0.0 | 0.00 | 0.43 | 0.18 | 87 | 1015.1 |
| 20260507075214 | 10 | 171 | 0.0 | 0.0 | 0.00 | 0.43 | 0.18 | 87 | 1015.0 |
| 20260507074713 | 10 | 171 | 0.0 | 0.0 | 0.00 | 0.43 | 0.18 | 87 | 1015.0 |
| 20260507074216 | 9 | 172 | 0.0 | 0.0 | 0.00 | 0.43 | 0.18 | 87 | 1015.0 |
| 20260507073727 | 9 | 171 | 0.0 | 0.0 | 0.03 | 0.43 | 0.18 | 87 | 1015.0 |
| 20260507073230 | 9 | 171 | 0.0 | 0.0 | 0.03 | 0.43 | 0.18 | 87 | 1014.9 |
| 20260507072728 | 8 | 171 | 0.0 | 0.0 | 0.03 | 0.43 | 0.18 | 87 | 1014.9 |
| 20260507072222 | 8 | 171 | 0.0 | 0.0 | 0.05 | 0.43 | 0.18 | 87 | 1014.9 |
| 20260507071716 | 8 | 171 | 0.0 | 0.0 | 0.05 | 0.43 | 0.18 | 87 | 1014.9 |
| 20260507071231 | 8 | 171 | 0.0 | 0.0 | 0.05 | 0.43 | 0.18 | 87 | 1014.9 |
| 20260507070729 | 8 | 171 | 0.0 | 0.0 | 0.05 | 0.43 | 0.18 | 87 | 1014.9 |
| 20260507070213 | 8 | 172 | 0.0 | 0.0 | 0.05 | 0.43 | 0.18 | 87 | 1014.9 |
| 20260507065712 | 8 | 171 | 0.0 | 0.0 | 0.05 | 0.43 | 0.18 | 88 | 1014.8 |
| 20260507065230 | 8 | 171 | 0.0 | 0.0 | 0.05 | 0.43 | 0.18 | 87 | 1014.7 |
| 20260507064729 | 8 | 172 | 0.0 | 0.0 | 0.05 | 0.43 | 0.18 | 87 | 1014.7 |
| 20260507064224 | 8 | 171 | 0.0 | 0.0 | 0.05 | 0.43 | 0.18 | 87 | 1014.7 |
| 20260507063723 | 8 | 171 | 0.0 | 0.0 | 0.03 | 0.41 | 0.15 | 87 | 1014.6 |
| 20260507063235 | 8 | 171 | 0.0 | 0.0 | 0.03 | 0.41 | 0.15 | 87 | 1014.7 |
| 20260507062728 | 8 | 171 | 0.0 | 0.0 | 0.03 | 0.41 | 0.15 | 88 | 1014.5 |
| 20260507062213 | 8 | 171 | 0.0 | 0.0 | 0.00 | 0.38 | 0.15 | 88 | 1014.5 |
| 20260507061716 | 8 | 171 | 0.0 | 0.0 | 0.00 | 0.38 | 0.15 | 88 | 1014.5 |
| 20260507061216 | 8 | 171 | 0.0 | 0.0 | 0.00 | 0.38 | 0.15 | 88 | 1014.5 |
| 20260507060733 | 8 | 171 | 0.0 | 0.0 | 0.00 | 0.38 | 0.15 | 88 | 1014.5 |
| 20260507060234 | 8 | 171 | 0.0 | 0.0 | 0.00 | 0.38 | 0.15 | 88 | 1014.4 |
| 20260507055726 | 8 | 171 | 0.0 | 0.0 | 0.00 | 0.38 | 0.15 | 88 | 1014.4 |
| 20260507055227 | 8 | 171 | 0.0 | 0.0 | 0.00 | 0.38 | 0.15 | 88 | 1014.3 |
| 20260507054725 | 8 | 171 | 0.0 | 0.0 | 0.00 | 0.38 | 0.15 | 88 | 1014.3 |
| 20260507054226 | 8 | 171 | 0.0 | 0.0 | 0.00 | 0.38 | 0.15 | 87 | 1014.2 |
| 20260507053721 | 8 | 171 | 0.0 | 0.0 | 0.00 | 0.38 | 0.15 | 88 | 1014.2 |
| 20260507053216 | 8 | 172 | 0.0 | 0.0 | 0.00 | 0.38 | 0.15 | 88 | 1014.1 |
| 20260507052714 | 8 | 171 | 0.0 | 0.0 | 0.00 | 0.38 | 0.15 | 88 | 1014.1 |
| 20260507052231 | 8 | 171 | 0.0 | 0.0 | 0.00 | 0.38 | 0.15 | 88 | 1014.0 |
| 20260507051724 | 8 | 171 | 0.0 | 0.0 | 0.00 | 0.38 | 0.15 | 88 | 1014.0 |
| 20260507051221 | 8 | 171 | 0.0 | 0.0 | 0.00 | 0.38 | 0.15 | 88 | 1013.9 |
| 20260507050722 | 7 | 171 | 0.0 | 0.0 | 0.03 | 0.38 | 0.15 | 88 | 1013.9 |
| 20260507050220 | 7 | 171 | 0.0 | 0.0 | 0.03 | 0.38 | 0.15 | 88 | 1013.9 |
| 20260507045714 | 7 | 172 | 0.0 | 0.0 | 0.03 | 0.38 | 0.15 | 88 | 1013.8 |
| 20260507045218 | 7 | 172 | 0.0 | 0.0 | 0.03 | 0.38 | 0.15 | 88 | 1013.8 |
| 20260507044716 | 7 | 171 | 0.0 | 0.0 | 0.03 | 0.38 | 0.15 | 88 | 1013.7 |
| 20260507044233 | 7 | 171 | 0.0 | 0.0 | 0.03 | 0.38 | 0.15 | 88 | 1013.7 |
| 20260507043726 | 7 | 172 | 0.0 | 0.0 | 0.03 | 0.38 | 0.15 | 88 | 1013.6 |
| 20260507043220 | 7 | 171 | 0.0 | 0.0 | 0.03 | 0.38 | 0.15 | 88 | 1013.6 |
| 20260507042734 | 7 | 171 | 0.0 | 0.0 | 0.03 | 0.38 | 0.15 | 88 | 1013.6 |
| 20260507042229 | 7 | 172 | 0.0 | 0.0 | 0.03 | 0.38 | 0.15 | 88 | 1013.5 |
| 20260507041732 | 7 | 171 | 0.0 | 0.0 | 0.03 | 0.38 | 0.15 | 88 | 1013.4 |
| 20260507041231 | 7 | 171 | 0.0 | 0.0 | 0.03 | 0.38 | 0.15 | 88 | 1013.4 |
| 20260507040729 | 7 | 171 | 0.0 | 0.0 | 0.03 | 0.38 | 0.15 | 88 | 1013.4 |
| 20260507040221 | 7 | 171 | 0.0 | 0.0 | 0.00 | 0.36 | 0.13 | 88 | 1013.4 |
| 20260507035732 | 7 | 171 | 0.0 | 0.0 | 0.00 | 0.36 | 0.13 | 88 | 1013.4 |
| 20260507035231 | 7 | 171 | 0.0 | 0.0 | 0.00 | 0.36 | 0.13 | 88 | 1013.4 |
| 20260507034725 | 7 | 171 | 0.0 | 0.0 | 0.00 | 0.36 | 0.13 | 88 | 1013.3 |
| 20260507034227 | 7 | 171 | 0.0 | 0.0 | 0.00 | 0.36 | 0.13 | 88 | 1013.4 |
| 20260507033731 | 7 | 172 | 0.0 | 0.0 | 0.00 | 0.36 | 0.13 | 88 | 1013.3 |
| 20260507033214 | 7 | 171 | 0.0 | 0.0 | 0.03 | 0.36 | 0.13 | 88 | 1013.3 |
| 20260507032718 | 7 | 171 | 0.0 | 0.0 | 0.03 | 0.36 | 0.13 | 88 | 1013.2 |
| 20260507032215 | 7 | 171 | 0.0 | 0.0 | 0.03 | 0.36 | 0.13 | 88 | 1013.2 |
| 20260507031731 | 7 | 171 | 0.0 | 0.0 | 0.05 | 0.36 | 0.13 | 88 | 1013.2 |
| 20260507031229 | 7 | 171 | 0.0 | 0.0 | 0.05 | 0.36 | 0.13 | 88 | 1013.1 |
| 20260507030725 | 7 | 171 | 0.0 | 0.0 | 0.05 | 0.36 | 0.13 | 88 | 1013.2 |
| 20260507030224 | 7 | 171 | 0.0 | 0.0 | 0.05 | 0.36 | 0.13 | 88 | 1013.2 |
| 20260507025722 | 7 | 171 | 0.0 | 0.0 | 0.05 | 0.36 | 0.13 | 88 | 1013.1 |
| 20260507025220 | 7 | 171 | 0.0 | 0.0 | 0.05 | 0.36 | 0.13 | 88 | 1013.1 |
| 20260507024717 | 7 | 171 | 0.0 | 0.0 | 0.08 | 0.36 | 0.13 | 88 | 1013.1 |
| 20260507024234 | 7 | 171 | 0.0 | 0.0 | 0.08 | 0.36 | 0.13 | 88 | 1013.1 |
| 20260507023712 | 7 | 171 | 0.0 | 0.0 | 0.08 | 0.36 | 0.13 | 88 | 1013.1 |
| 20260507023215 | 7 | 171 | 0.0 | 0.0 | 0.08 | 0.33 | 0.10 | 88 | 1013.1 |
| 20260507022732 | 7 | 171 | 0.0 | 0.0 | 0.08 | 0.33 | 0.10 | 92 | 1013.1 |
| 20260507022227 | 7 | 171 | 0.0 | 0.0 | 0.08 | 0.33 | 0.10 | 88 | 1013.0 |
| 20260507021727 | 7 | 171 | 0.0 | 0.0 | 0.05 | 0.33 | 0.08 | 88 | 1013.0 |
| 20260507021229 | 7 | 171 | 0.0 | 0.0 | 0.05 | 0.33 | 0.08 | 88 | 1013.0 |
| 20260507020713 | 7 | 171 | 0.0 | 0.0 | 0.05 | 0.33 | 0.08 | 88 | 1012.9 |
| 20260507020226 | 7 | 171 | 0.0 | 0.0 | 0.05 | 0.33 | 0.08 | 88 | 1013.0 |
| 20260507015715 | 7 | 171 | 0.0 | 0.0 | 0.05 | 0.30 | 0.05 | 88 | 1013.0 |
| 20260507015217 | 7 | 171 | 0.0 | 0.0 | 0.05 | 0.30 | 0.05 | 88 | 1012.9 |
| 20260507014716 | 7 | 171 | 0.0 | 0.0 | 0.03 | 0.28 | 0.05 | 88 | 1012.9 |
| 20260507014233 | 7 | 171 | 0.0 | 0.0 | 0.03 | 0.28 | 0.05 | 88 | 1012.9 |
| 20260507013727 | 7 | 171 | 0.0 | 0.0 | 0.03 | 0.28 | 0.05 | 88 | 1012.8 |
| 20260507013225 | 7 | 171 | 0.0 | 0.0 | 0.00 | 0.25 | 0.03 | 88 | 1012.8 |
| 20260507012724 | 7 | 171 | 0.0 | 0.0 | 0.00 | 0.25 | 0.03 | 88 | 1012.7 |
| 20260507012218 | 7 | 171 | 0.0 | 0.0 | 0.00 | 0.25 | 0.03 | 88 | 1012.6 |
| 20260507011723 | 7 | 171 | 0.0 | 0.0 | 0.00 | 0.25 | 0.03 | 88 | 1012.6 |
| 20260507011223 | 7 | 171 | 0.0 | 0.0 | 0.00 | 0.25 | 0.03 | 88 | 1012.6 |
| 20260507010716 | 7 | 171 | 0.0 | 0.0 | 0.00 | 0.25 | 0.03 | 88 | 1012.6 |
| 20260507010233 | 7 | 171 | 0.0 | 0.0 | 0.03 | 0.25 | 0.03 | 88 | 1012.6 |
| 20260507005724 | 7 | 171 | 0.0 | 0.0 | 0.03 | 0.25 | 0.03 | 88 | 1012.6 |
| 20260507005217 | 7 | 171 | 0.0 | 0.0 | 0.03 | 0.25 | 0.03 | 88 | 1012.6 |
| 20260507004733 | 6 | 171 | 0.0 | 0.0 | 0.03 | 0.25 | 0.03 | 88 | 1012.5 |
| 20260507004232 | 6 | 171 | 0.0 | 0.0 | 0.03 | 0.25 | 0.03 | 89 | 1012.5 |
| 20260507003730 | 6 | 171 | 0.0 | 0.0 | 0.03 | 0.25 | 0.03 | 88 | 1012.4 |
| 20260507003214 | 6 | 171 | 0.0 | 0.0 | 0.03 | 0.25 | 0.03 | 88 | 1012.5 |
| 20260507002719 | 6 | 171 | 0.0 | 0.0 | 0.03 | 0.25 | 0.03 | 89 | 1012.5 |
| 20260507002217 | 6 | 171 | 0.0 | 0.0 | 0.03 | 0.25 | 0.03 | 88 | 1012.4 |
| 20260507001716 | 6 | 171 | 0.0 | 0.0 | 0.03 | 0.25 | 0.03 | 89 | 1012.4 |
| 20260507001215 | 6 | 171 | 0.0 | 0.0 | 0.03 | 0.25 | 0.03 | 89 | 1012.5 |
| 20260507000728 | 6 | 171 | 0.0 | 0.0 | 0.03 | 0.25 | 0.03 | 89 | 1012.5 |
| 20260507000216 | 6 | 171 | 0.0 | 0.0 | 0.00 | 0.23 | 0.00 | 89 | 1012.5 |
| 20260506235727 | 6 | 171 | 0.0 | 0.0 | 0.00 | 0.23 | 0.00 | 89 | 1012.5 |
| 20260506235223 | 6 | 171 | 0.0 | 0.0 | 0.00 | 0.23 | 0.00 | 89 | 1012.5 |
| 20260506234721 | 6 | 171 | 0.0 | 0.0 | 0.00 | 0.23 | 0.00 | 89 | 1012.5 |
| 20260506234234 | 6 | 171 | 0.0 | 0.0 | 0.00 | 0.23 | 0.00 | 89 | 1012.5 |
| 20260506233728 | 6 | 171 | 0.0 | 0.0 | 0.00 | 0.23 | 0.00 | 89 | 1012.5 |
| 20260506233223 | 6 | 171 | 0.0 | 0.0 | 0.00 | 0.23 | 0.00 | 89 | 1012.5 |
| 20260506232721 | 6 | 171 | 0.0 | 0.0 | 0.00 | 0.23 | 0.00 | 89 | 1012.5 |
| 20260506232215 | 6 | 171 | 0.0 | 0.0 | 0.00 | 0.23 | 0.00 | 89 | 1012.4 |
| 20260506231731 | 6 | 171 | 0.0 | 0.0 | 0.00 | 0.23 | 0.00 | 89 | 1012.4 |
| 20260506231213 | 6 | 171 | 0.0 | 0.0 | 0.00 | 0.23 | 0.00 | 89 | 1012.3 |
| 20260506230713 | 6 | 171 | 0.0 | 0.0 | 0.00 | 0.23 | 0.00 | 89 | 1012.4 |
| 20260506230230 | 6 | 171 | 0.0 | 0.0 | 0.00 | 0.23 | 0.00 | 89 | 1012.4 |
| 20260506225723 | 6 | 171 | 0.0 | 0.0 | 0.00 | 0.23 | 0.00 | 89 | 1012.2 |
| 20260506225221 | 6 | 171 | 0.0 | 0.0 | 0.00 | 0.23 | 0.00 | 89 | 1012.2 |
| 20260506224721 | 6 | 171 | 0.0 | 0.0 | 0.00 | 0.23 | 0.00 | 89 | 1012.3 |
| 20260506224221 | 6 | 171 | 0.0 | 0.0 | 0.00 | 0.23 | 0.00 | 89 | 1012.3 |
| 20260506223719 | 6 | 171 | 0.0 | 0.0 | 0.00 | 0.23 | 0.00 | 89 | 1012.3 |
| 20260506223215 | 6 | 171 | 0.0 | 0.0 | 0.00 | 0.23 | 0.00 | 89 | 1012.3 |
| 20260506222730 | 6 | 171 | 0.0 | 0.0 | 0.00 | 0.23 | 0.00 | 89 | 1012.2 |
| 20260506222228 | 6 | 171 | 0.0 | 0.0 | 0.00 | 0.23 | 0.00 | 89 | 1012.2 |
| 20260506221723 | 6 | 171 | 0.0 | 0.0 | 0.00 | 0.23 | 0.00 | 89 | 1012.2 |
| 20260506221225 | 6 | 171 | 0.0 | 0.0 | 0.00 | 0.23 | 0.00 | 89 | 1012.1 |
| 20260506220726 | 6 | 171 | 0.0 | 0.0 | 0.00 | 0.23 | 0.00 | 89 | 1012.2 |
| 20260506220232 | 6 | 171 | 0.0 | 0.0 | 0.00 | 0.23 | 0.00 | 89 | 1012.2 |
| 20260506215727 | 6 | 171 | 0.0 | 0.0 | 0.00 | 0.23 | 0.23 | 89 | 1012.2 |
| 20260506215223 | 6 | 171 | 0.0 | 0.0 | 0.00 | 0.23 | 0.23 | 89 | 1012.2 |
| 20260506214728 | 6 | 171 | 0.0 | 0.0 | 0.00 | 0.23 | 0.23 | 89 | 1012.1 |
| 20260506214225 | 6 | 171 | 0.0 | 0.0 | 0.00 | 0.23 | 0.23 | 89 | 1012.1 |
| 20260506213721 | 7 | 171 | 0.0 | 0.0 | 0.00 | 0.23 | 0.23 | 89 | 1012.1 |
| 20260506213221 | 7 | 171 | 0.0 | 0.0 | 0.00 | 0.23 | 0.23 | 89 | 1012.1 |
| 20260506212723 | 7 | 171 | 0.0 | 0.0 | 0.00 | 0.23 | 0.23 | 89 | 1012.1 |
| 20260506212224 | 7 | 171 | 0.0 | 0.0 | 0.00 | 0.23 | 0.23 | 89 | 1012.0 |
| 20260506211719 | 7 | 171 | 0.0 | 0.0 | 0.00 | 0.23 | 0.23 | 89 | 1012.1 |
| 20260506211218 | 7 | 171 | 0.0 | 0.0 | 0.00 | 0.23 | 0.23 | 89 | 1012.0 |
| 20260506210716 | 7 | 171 | 0.0 | 0.0 | 0.00 | 0.23 | 0.23 | 89 | 1011.9 |
| 20260506210233 | 7 | 171 | 0.0 | 0.0 | 0.00 | 0.23 | 0.23 | 89 | 1011.8 |
| 20260506205730 | 7 | 171 | 0.0 | 0.0 | 0.00 | 0.23 | 0.23 | 89 | 1011.8 |
| 20260506205225 | 7 | 171 | 0.0 | 0.0 | 0.00 | 0.23 | 0.23 | 89 | 1011.7 |
| 20260506204727 | 7 | 171 | 0.0 | 0.0 | 0.00 | 0.23 | 0.23 | 89 | 1011.7 |
| 20260506204221 | 7 | 171 | 0.0 | 0.0 | 0.00 | 0.23 | 0.23 | 89 | 1011.8 |
| 20260506203723 | 7 | 171 | 0.0 | 0.0 | 0.00 | 0.23 | 0.23 | 89 | 1011.6 |
| 20260506203220 | 7 | 171 | 0.0 | 0.0 | 0.00 | 0.23 | 0.23 | 89 | 1011.7 |
| 20260506202718 | 7 | 171 | 0.0 | 0.0 | 0.00 | 0.23 | 0.23 | 89 | 1011.7 |
| 20260506202217 | 7 | 171 | 0.0 | 0.0 | 0.00 | 0.23 | 0.23 | 89 | 1011.5 |
| 20260506201733 | 7 | 171 | 0.0 | 0.0 | 0.00 | 0.23 | 0.23 | 89 | 1011.4 |
| 20260506201228 | 7 | 171 | 0.0 | 0.0 | 0.00 | 0.23 | 0.23 | 88 | 1011.3 |
| 20260506200728 | 7 | 171 | 0.0 | 0.0 | 0.00 | 0.23 | 0.23 | 88 | 1011.2 |
| 20260506200232 | 7 | 171 | 0.0 | 0.0 | 0.00 | 0.23 | 0.23 | 88 | 1011.2 |
| 20260506195729 | 8 | 171 | 0.0 | 0.0 | 0.00 | 0.23 | 0.23 | 88 | 1011.1 |
| 20260506195225 | 8 | 171 | 0.0 | 0.0 | 0.00 | 0.23 | 0.23 | 92 | 1011.1 |
| 20260506194724 | 8 | 171 | 0.0 | 0.0 | 0.00 | 0.23 | 0.23 | 88 | 1010.9 |
| 20260506194220 | 8 | 171 | 0.0 | 0.0 | 0.00 | 0.23 | 0.23 | 88 | 1010.9 |
| 20260506193714 | 8 | 171 | 0.0 | 0.0 | 0.00 | 0.23 | 0.23 | 88 | 1010.8 |
| 20260506193212 | 8 | 171 | 0.0 | 0.0 | 0.00 | 0.23 | 0.23 | 88 | 1010.8 |
| 20260506192712 | 8 | 171 | 0.0 | 0.0 | 0.00 | 0.23 | 0.23 | 87 | 1010.7 |
| 20260506192229 | 8 | 171 | 0.0 | 0.0 | 0.00 | 0.23 | 0.23 | 87 | 1010.7 |
| 20260506191729 | 8 | 171 | 0.0 | 0.0 | 0.00 | 0.23 | 0.23 | 87 | 1010.6 |
| 20260506191228 | 8 | 171 | 0.0 | 0.0 | 0.00 | 0.23 | 0.23 | 87 | 1010.6 |
| 20260506190728 | 9 | 171 | 0.0 | 0.0 | 0.00 | 0.23 | 0.23 | 86 | 1010.6 |
| 20260506190228 | 9 | 171 | 0.0 | 0.0 | 0.00 | 0.23 | 0.23 | 86 | 1010.6 |
| 20260506185723 | 9 | 171 | 0.0 | 0.0 | 0.00 | 0.23 | 0.23 | 86 | 1010.5 |
| 20260506185231 | 10 | 171 | 0.0 | 0.0 | 0.00 | 0.23 | 0.23 | 86 | 1010.4 |
| 20260506184712 | 10 | 172 | 0.0 | 0.0 | 0.00 | 0.23 | 0.23 | 86 | 1010.4 |
| 20260506184232 | 10 | 171 | 0.0 | 0.0 | 0.00 | 0.23 | 0.23 | 86 | 1010.4 |
| 20260506183727 | 10 | 171 | 0.0 | 0.0 | 0.00 | 0.23 | 0.23 | 85 | 1010.3 |
| 20260506183220 | 10 | 171 | 0.0 | 0.0 | 0.00 | 0.23 | 0.23 | 85 | 1010.2 |
| 20260506182717 | 10 | 171 | 0.0 | 0.0 | 0.00 | 0.23 | 0.23 | 85 | 1010.2 |
| 20260506182215 | 10 | 171 | 0.0 | 0.0 | 0.00 | 0.23 | 0.23 | 84 | 1010.1 |